Volver al catálogo

STARLINK-34348

ActivoComunicacionesSSO
NORAD 64152·PAYLOAD·🇺🇸 United States

Lanzado May 27, 2025 desde Vandenberg Space Force Base

Loading…

Próximos Pases (próximas 24 horas)

TLE

ActualizadoSource: CelesTrak SupGP

Época: Sep 14, 2026, 21:16 UTC

1 64152C 25112G   26257.88659722 -.00006285  00000+0 -19524-3 0  2571
2 64152  97.2830 305.0029 0001181  96.1761 345.8207 15.33419531    14

Sigue STARLINK-34348 en tiempo real con AllMySat

Download on the App Store